contact:dominique.lefevre@mio.osupytheas.fr, maurice.libes@osupytheas.fr, didier.mallarino@osupytheas.fr
Project:EMSO http://www.emso-fr.org/EMSO-France
Depth: 2436.0 m
Title:EMSO Ligure Ouest : Data MII capteur AQUADOPP
Date,Latitude,Longitude,X_East,Y_North,Z_Up,Amplitude_X,Amplitude_Y,Amplitude_Z,Batterie,SoundSpeed,Heading,Pitch,Roll,Pressure,TIS,Speed,Direction
, degrees North, degrees East, m.s-1, m.s-1,m.s-1, 1, 1, 1, Volt, m.s-1, degree, degree, degree, dbar, degree_C, m.s-1, degree
2023-12-12T00:04:03,42.805,6.029,-0.018,0.016,-0.046,109.0,107.0,105.0,13.4,1505.2,350.8,-0.8,1.8,2471.525,13.29,0.024,311.6
2023-12-12T00:07:03,42.805,6.029,0.001,0.003,-0.022,109.0,108.0,106.0,13.4,1505.2,347.6,-0.8,1.8,2471.522,13.29,0.003,18.4
2023-12-12T00:10:03,42.805,6.029,-0.001,0.0,-0.021,108.0,107.0,105.0,13.4,1505.2,344.8,-0.8,1.8,2471.513,13.29,0.001,270.0
2023-12-12T00:13:03,42.805,6.029,0.0,0.018,0.001,109.0,109.0,104.0,13.4,1505.2,346.5,-0.8,1.8,2471.51,13.29,0.018,0.0
2023-12-12T00:16:03,42.805,6.029,0.002,0.002,-0.006,108.0,108.0,104.0,13.4,1505.2,2.3,-0.8,1.8,2471.475,13.29,0.002,45.0
2023-12-12T00:19:03,42.805,6.029,0.014,0.022,-0.008,107.0,109.0,104.0,13.3,1505.2,337.6,-0.8,1.8,2471.507,13.29,0.026,32.5
2023-12-12T00:22:03,42.805,6.029,-0.007,0.011,-0.004,109.0,108.0,105.0,13.4,1505.2,349.4,-0.8,1.8,2471.481,13.29,0.013,327.5
2023-12-12T00:25:03,42.805,6.029,-0.004,0.008,0.015,109.0,108.0,104.0,13.4,1505.2,356.4,-0.7,1.8,2471.49,13.29,0.008,333.4
2023-12-12T00:28:03,42.805,6.029,-0.002,0.015,-0.022,108.0,109.0,105.0,13.4,1505.2,339.4,-0.7,1.9,2471.505,13.29,0.015,352.4
2023-12-12T00:31:03,42.805,6.029,-0.012,0.004,-0.01,107.0,109.0,105.0,13.3,1505.2,355.6,-0.7,1.8,2471.496,13.29,0.012,288.4
2023-12-12T00:34:03,42.805,6.029,-0.006,0.0,0.029,108.0,108.0,106.0,13.3,1505.2,354.8,-0.8,1.8,2471.484,13.29,0.006,270.0
2023-12-12T00:37:03,42.805,6.029,-0.017,0.026,-0.013,109.0,109.0,105.0,13.4,1505.2,338.6,-0.7,1.9,2471.465,13.29,0.031,326.8
2023-12-12T00:40:03,42.805,6.029,-0.014,0.01,-0.025,108.0,108.0,106.0,13.3,1505.2,347.6,-0.8,1.8,2471.462,13.29,0.017,305.5
2023-12-12T00:43:03,42.805,6.029,-0.003,0.01,-0.002,108.0,108.0,105.0,13.4,1505.2,342.8,-0.7,1.8,2471.496,13.29,0.01,343.3
2023-12-12T00:46:03,42.805,6.029,-0.012,0.023,-0.026,108.0,107.0,106.0,13.3,1505.2,2.3,-0.8,1.9,2471.466,13.29,0.025,332.4
2023-12-12T00:49:03,42.805,6.029,-0.005,0.007,-0.022,109.0,110.0,105.0,13.4,1505.2,339.5,-0.8,1.8,2471.484,13.29,0.008,324.5
2023-12-12T00:52:03,42.805,6.029,-0.008,0.005,-0.048,108.0,107.0,106.0,13.4,1505.2,343.0,-0.7,1.8,2471.439,13.29,0.009,302.0
2023-12-12T00:55:03,42.805,6.029,-0.002,0.007,-0.017,110.0,108.0,105.0,13.4,1505.2,2.4,-0.8,1.8,2471.484,13.29,0.007,344.1
2023-12-12T00:58:03,42.805,6.029,-0.016,0.024,-0.001,108.0,108.0,105.0,13.3,1505.2,359.2,-0.8,1.8,2471.437,13.29,0.028,326.3
2023-12-12T01:04:03,42.805,6.029,-0.022,0.004,-0.031,110.0,108.0,105.0,13.4,1505.2,349.1,-0.8,1.8,2471.508,13.29,0.022,280.3
2023-12-12T01:07:03,42.805,6.029,-0.004,0.024,-0.012,109.0,109.0,105.0,13.4,1505.2,346.1,-0.8,1.8,2471.476,13.29,0.024,350.5
2023-12-12T01:10:03,42.805,6.029,-0.027,0.018,-0.006,110.0,107.0,105.0,13.4,1505.2,346.4,-0.8,1.8,2471.503,13.29,0.032,303.7
2023-12-12T01:13:03,42.805,6.029,-0.018,0.003,-0.029,108.0,108.0,106.0,13.3,1505.2,344.2,-0.7,1.8,2471.497,13.29,0.018,279.5
2023-12-12T01:16:03,42.805,6.029,0.003,0.01,-0.019,109.0,108.0,105.0,13.4,1505.2,3.3,-0.8,1.8,2471.508,13.29,0.01,16.7
2023-12-12T01:19:03,42.805,6.029,-0.032,-0.002,-0.021,108.0,106.0,105.0,13.4,1505.2,342.7,-0.7,1.8,2471.472,13.29,0.032,266.4
2023-12-12T01:22:03,42.805,6.029,-0.009,0.017,-0.045,109.0,107.0,106.0,13.4,1505.2,354.8,-0.8,1.8,2471.49,13.29,0.019,332.1
2023-12-12T01:25:03,42.805,6.029,-0.016,0.009,-0.019,108.0,110.0,105.0,13.4,1505.2,346.7,-0.8,1.8,2471.459,13.29,0.018,299.4
2023-12-12T01:28:03,42.805,6.029,-0.001,0.0,-0.009,108.0,109.0,105.0,13.3,1505.2,351.3,-0.8,1.8,2471.5,13.29,0.001,270.0
2023-12-12T01:31:03,42.805,6.029,-0.017,-0.009,-0.015,109.0,109.0,106.0,13.3,1505.2,337.7,-0.8,1.8,2471.472,13.29,0.019,242.1
2023-12-12T01:34:03,42.805,6.029,-0.008,0.02,0.0,108.0,108.0,107.0,13.3,1505.2,351.3,-0.8,1.8,2471.473,13.29,0.021,338.2
2023-12-12T01:37:03,42.805,6.029,0.0,-0.003,-0.008,109.0,108.0,107.0,13.3,1505.2,0.8,-0.8,1.8,2471.481,13.29,0.003,180.0
2023-12-12T01:40:03,42.805,6.029,-0.019,0.008,-0.023,108.0,108.0,104.0,13.4,1505.2,353.0,-0.7,1.8,2471.478,13.29,0.02,292.8
2023-12-12T01:43:03,42.805,6.029,-0.006,0.005,-0.029,108.0,109.0,106.0,13.3,1505.2,347.7,-0.7,1.8,2471.465,13.29,0.007,309.8
2023-12-12T01:46:03,42.805,6.029,-0.013,0.028,-0.027,108.0,107.0,105.0,13.3,1505.2,4.0,-0.8,1.8,2471.52,13.29,0.03,335.1
2023-12-12T01:49:03,42.805,6.029,0.009,0.001,0.023,107.0,108.0,106.0,13.4,1505.2,344.8,-0.8,1.8,2471.505,13.29,0.009,83.7
2023-12-12T01:52:03,42.805,6.029,-0.014,-0.007,-0.023,109.0,108.0,105.0,13.4,1505.2,1.6,-0.8,1.8,2471.485,13.29,0.015,243.4
2023-12-12T01:55:03,42.805,6.029,-0.008,0.015,0.008,109.0,108.0,105.0,13.4,1505.2,339.1,-0.8,1.8,2471.488,13.29,0.017,331.9
2023-12-12T01:58:03,42.805,6.029,-0.018,0.012,-0.022,110.0,111.0,105.0,13.3,1505.2,345.9,-0.7,1.8,2471.513,13.29,0.021,303.7
2023-12-12T02:04:03,42.805,6.029,-0.007,0.004,-0.044,108.0,108.0,107.0,13.3,1505.2,357.4,-0.8,1.8,2471.551,13.29,0.008,299.7
2023-12-12T02:07:03,42.805,6.029,-0.028,0.021,0.01,109.0,107.0,106.0,13.4,1505.2,358.1,-0.8,1.8,2471.557,13.29,0.035,306.9
2023-12-12T02:10:03,42.805,6.029,0.001,0.0,-0.018,109.0,108.0,105.0,13.4,1505.2,342.8,-0.8,1.8,2471.519,13.29,0.001,90.0
2023-12-12T02:13:03,42.805,6.029,-0.014,0.012,-0.022,110.0,109.0,106.0,13.4,1505.2,3.2,-0.8,1.8,2471.537,13.29,0.018,310.6
2023-12-12T02:16:04,42.805,6.029,0.001,0.009,-0.01,109.0,107.0,105.0,13.4,1505.2,342.2,-0.8,1.8,2471.543,13.29,0.009,6.3
2023-12-12T02:19:03,42.805,6.029,-0.024,0.006,-0.039,108.0,109.0,106.0,13.4,1505.2,349.4,-0.7,1.8,2471.542,13.29,0.024,284.0
2023-12-12T02:22:03,42.805,6.029,0.005,0.007,-0.01,108.0,108.0,106.0,13.4,1505.2,2.4,-0.8,1.8,2471.568,13.29,0.008,35.5
2023-12-12T02:25:03,42.805,6.029,0.011,0.024,-0.025,109.0,108.0,105.0,13.3,1505.2,343.6,-0.8,1.8,2471.524,13.29,0.026,24.6
2023-12-12T02:28:03,42.805,6.029,-0.014,-0.001,-0.019,109.0,108.0,105.0,13.4,1505.2,354.4,-0.8,1.8,2471.486,13.29,0.014,265.9
2023-12-12T02:31:03,42.805,6.029,-0.001,-0.004,-0.036,109.0,108.0,106.0,13.4,1505.2,2.4,-0.8,1.8,2471.539,13.29,0.004,194.0
2023-12-12T02:34:03,42.805,6.029,-0.024,0.022,-0.031,109.0,107.0,106.0,13.4,1505.2,347.3,-0.7,1.8,2471.537,13.29,0.032,312.5
2023-12-12T02:37:03,42.805,6.029,-0.018,0.006,-0.005,109.0,108.0,106.0,13.3,1505.2,344.8,-0.8,1.8,2471.54,13.29,0.018,288.4
2023-12-12T02:40:03,42.805,6.029,-0.026,0.021,-0.026,109.0,109.0,105.0,13.4,1505.2,338.9,-0.7,1.8,2471.522,13.29,0.033,308.9
2023-12-12T02:43:03,42.805,6.029,0.002,0.025,-0.024,108.0,108.0,106.0,13.4,1505.2,343.6,-0.8,1.8,2471.523,13.29,0.025,4.6
2023-12-12T02:46:03,42.805,6.029,0.003,0.001,-0.02,108.0,108.0,106.0,13.3,1505.2,357.6,-0.8,1.8,2471.53,13.29,0.003,71.6
2023-12-12T02:49:03,42.805,6.029,-0.017,0.025,0.016,110.0,108.0,106.0,13.4,1505.2,357.5,-0.8,1.8,2471.537,13.29,0.03,325.8
2023-12-12T02:52:03,42.805,6.029,-0.012,0.019,-0.01,108.0,108.0,105.0,13.4,1505.2,350.7,-0.8,1.8,2471.544,13.29,0.022,327.7
2023-12-12T02:55:03,42.805,6.029,-0.018,0.014,-0.02,108.0,108.0,105.0,13.4,1505.2,350.6,-0.8,1.8,2471.532,13.29,0.022,307.9
2023-12-12T02:58:03,42.805,6.029,-0.023,-0.015,-0.018,109.0,107.0,106.0,13.4,1505.2,1.6,-0.8,1.8,2471.573,13.29,0.027,236.9
2023-12-12T03:04:03,42.805,6.029,-0.024,0.0,-0.045,109.0,107.0,105.0,13.3,1505.2,350.2,-0.8,1.8,2471.608,13.29,0.024,270.0
2023-12-12T03:07:03,42.805,6.029,-0.027,0.016,-0.007,108.0,109.0,105.0,13.4,1505.2,4.0,-0.8,1.8,2471.602,13.29,0.031,300.7
2023-12-12T03:10:03,42.805,6.029,-0.008,0.003,0.0,108.0,107.0,104.0,13.4,1505.2,348.3,-0.8,1.8,2471.58,13.29,0.008,290.6
2023-12-12T03:13:03,42.805,6.029,-0.007,-0.001,-0.038,109.0,108.0,105.0,13.3,1505.2,2.5,-0.8,1.8,2471.599,13.29,0.007,261.9
2023-12-12T03:16:03,42.805,6.029,-0.011,0.014,-0.027,109.0,110.0,105.0,13.4,1505.2,344.5,-0.7,1.8,2471.609,13.29,0.017,321.8
2023-12-12T03:19:03,42.805,6.029,-0.006,0.003,-0.034,108.0,107.0,105.0,13.4,1505.2,347.2,-0.7,1.8,2471.586,13.29,0.006,296.6
2023-12-12T03:22:03,42.805,6.029,-0.004,0.006,-0.01,109.0,109.0,106.0,13.4,1505.2,344.9,-0.8,1.8,2471.566,13.29,0.007,326.3
2023-12-12T03:25:03,42.805,6.029,-0.019,-0.005,-0.007,110.0,107.0,105.0,13.4,1505.2,357.6,-0.8,1.8,2471.591,13.29,0.019,255.3
2023-12-12T03:28:03,42.805,6.029,-0.034,0.003,-0.022,109.0,108.0,106.0,13.3,1505.2,353.8,-0.8,1.8,2471.543,13.29,0.034,275.0
2023-12-12T03:31:03,42.805,6.029,-0.001,0.02,-0.033,110.0,108.0,106.0,13.4,1505.2,356.3,-0.8,1.8,2471.58,13.29,0.02,357.1
2023-12-12T03:34:03,42.805,6.029,-0.023,0.011,-0.008,108.0,109.0,106.0,13.3,1505.2,341.0,-0.7,1.8,2471.584,13.29,0.025,295.6
2023-12-12T03:37:03,42.805,6.029,-0.025,0.006,0.003,108.0,108.0,105.0,13.4,1505.2,353.2,-0.8,1.8,2471.584,13.29,0.025,283.5
2023-12-12T03:40:03,42.805,6.029,-0.02,0.008,-0.044,109.0,108.0,106.0,13.3,1505.2,343.1,-0.8,1.8,2471.604,13.29,0.021,291.8
2023-12-12T03:43:03,42.805,6.029,0.0,0.017,-0.034,109.0,108.0,106.0,13.4,1505.2,3.3,-0.8,1.8,2471.601,13.29,0.017,0.0
2023-12-12T03:46:03,42.805,6.029,-0.024,0.007,-0.013,108.0,108.0,106.0,13.4,1505.2,339.8,-0.7,1.8,2471.631,13.29,0.025,286.3
2023-12-12T03:49:03,42.805,6.029,-0.009,0.011,-0.018,109.0,107.0,104.0,13.3,1505.2,354.7,-0.7,1.8,2471.595,13.29,0.014,320.7
2023-12-12T03:52:03,42.805,6.029,0.0,0.013,-0.006,109.0,109.0,105.0,13.4,1505.2,356.0,-0.8,1.8,2471.593,13.29,0.013,0.0
2023-12-12T03:55:03,42.805,6.029,-0.028,0.018,-0.032,109.0,109.0,105.0,13.4,1505.2,337.4,-0.8,1.8,2471.636,13.29,0.033,302.7
2023-12-12T03:58:03,42.805,6.029,0.024,0.022,-0.016,108.0,108.0,105.0,13.3,1505.2,354.8,-0.8,1.8,2471.629,13.29,0.032,47.5
2023-12-12T04:04:03,42.805,6.029,-0.021,0.013,-0.032,108.0,109.0,106.0,13.4,1505.2,355.6,-0.8,1.8,2471.661,13.29,0.024,301.8
2023-12-12T04:07:03,42.805,6.029,-0.026,0.004,-0.017,109.0,108.0,105.0,13.3,1505.2,344.5,-0.8,1.8,2471.704,13.29,0.026,278.7
2023-12-12T04:10:03,42.805,6.029,-0.029,0.029,-0.019,108.0,108.0,105.0,13.4,1505.2,2.5,-0.7,1.8,2471.683,13.29,0.041,315.0
2023-12-12T04:13:03,42.805,6.029,-0.034,0.002,-0.025,109.0,108.0,105.0,13.4,1505.2,339.2,-0.8,1.8,2471.636,13.29,0.034,273.4
2023-12-12T04:16:03,42.805,6.029,-0.011,0.026,-0.009,108.0,108.0,106.0,13.4,1505.2,345.5,-0.8,1.8,2471.573,13.29,0.028,337.1
2023-12-12T04:19:03,42.805,6.029,-0.007,0.021,-0.036,107.0,109.0,105.0,13.4,1505.2,1.5,-0.7,1.8,2471.62,13.29,0.022,341.6
2023-12-12T04:22:03,42.805,6.029,-0.025,0.003,-0.032,107.0,107.0,105.0,13.3,1505.2,343.9,-0.8,1.8,2471.652,13.29,0.025,276.8
2023-12-12T04:25:03,42.805,6.029,-0.022,0.018,-0.042,108.0,106.0,107.0,13.4,1505.2,345.3,-0.8,1.8,2471.659,13.29,0.028,309.3
2023-12-12T04:28:03,42.805,6.029,-0.018,0.021,-0.004,107.0,107.0,105.0,13.4,1505.2,351.1,-0.8,1.8,2471.647,13.29,0.027,319.4
2023-12-12T04:31:03,42.805,6.029,-0.023,0.025,-0.028,109.0,108.0,104.0,13.4,1505.2,356.5,-0.7,1.8,2471.666,13.29,0.033,317.4
2023-12-12T04:34:03,42.805,6.029,-0.017,0.014,-0.004,108.0,109.0,104.0,13.3,1505.2,0.8,-0.8,1.8,2471.619,13.29,0.022,309.5
2023-12-12T04:37:03,42.805,6.029,-0.009,0.009,-0.008,109.0,108.0,104.0,13.3,1505.2,337.3,-0.8,1.8,2471.641,13.29,0.012,315.0
2023-12-12T04:40:03,42.805,6.029,-0.024,0.0,-0.038,109.0,107.0,106.0,13.4,1505.2,351.3,-0.8,1.8,2471.657,13.29,0.024,270.0
2023-12-12T04:43:03,42.805,6.029,-0.016,0.023,-0.041,107.0,108.0,104.0,13.4,1505.2,355.7,-0.7,1.8,2471.632,13.29,0.028,325.2
2023-12-12T04:46:03,42.805,6.029,-0.051,0.019,-0.023,107.0,108.0,105.0,13.4,1505.2,347.0,-0.8,1.8,2471.668,13.29,0.054,290.4
2023-12-12T04:49:03,42.805,6.029,0.002,0.016,0.001,108.0,107.0,105.0,13.4,1505.2,359.0,-0.8,1.8,2471.647,13.29,0.016,7.1
2023-12-12T04:52:03,42.805,6.029,-0.018,0.037,0.022,108.0,108.0,105.0,13.3,1505.2,344.6,-0.8,1.8,2471.661,13.29,0.041,334.1
2023-12-12T04:55:03,42.805,6.029,-0.019,0.035,-0.009,107.0,107.0,105.0,13.4,1505.2,354.7,-0.8,1.8,2471.639,13.29,0.039,331.5
2023-12-12T04:58:03,42.805,6.029,-0.032,0.046,-0.031,108.0,107.0,105.0,13.4,1505.2,3.3,-0.8,1.8,2471.669,13.29,0.056,325.2
2023-12-12T05:04:03,42.805,6.029,-0.04,0.035,-0.024,108.0,108.0,105.0,13.4,1505.2,356.6,-0.8,1.8,2471.702,13.29,0.053,311.2
2023-12-12T05:07:03,42.805,6.029,-0.017,0.024,-0.007,108.0,107.0,105.0,13.4,1505.2,1.6,-0.8,1.8,2471.681,13.29,0.029,324.7
2023-12-12T05:10:03,42.805,6.029,-0.03,0.004,-0.01,109.0,108.0,105.0,13.4,1505.2,338.7,-0.8,1.8,2471.694,13.29,0.03,277.6
2023-12-12T05:13:03,42.805,6.029,-0.023,0.016,-0.036,109.0,107.0,105.0,13.4,1505.2,357.4,-0.8,1.8,2471.687,13.29,0.028,304.8
2023-12-12T05:16:03,42.805,6.029,-0.025,0.038,-0.013,108.0,108.0,105.0,13.4,1505.2,1.6,-0.8,1.8,2471.701,13.29,0.045,326.7
2023-12-12T05:19:03,42.805,6.029,-0.043,0.017,-0.067,108.0,107.0,106.0,13.4,1505.2,349.3,-0.7,1.8,2471.743,13.29,0.046,291.6
2023-12-12T05:22:03,42.805,6.029,-0.027,0.028,-0.024,108.0,108.0,105.0,13.3,1505.2,359.1,-0.8,1.8,2471.705,13.29,0.038,316.0
2023-12-12T05:25:03,42.805,6.029,-0.036,0.046,-0.021,107.0,106.0,105.0,13.3,1505.2,339.1,-0.8,1.8,2471.675,13.29,0.058,322.0
2023-12-12T05:28:03,42.805,6.029,-0.029,0.026,0.011,108.0,108.0,105.0,13.4,1505.2,345.3,-0.7,1.8,2471.69,13.29,0.038,311.9
2023-12-12T05:31:03,42.805,6.029,-0.03,0.034,-0.013,109.0,108.0,105.0,13.3,1505.2,0.8,-0.8,1.8,2471.691,13.29,0.045,318.6
2023-12-12T05:34:03,42.805,6.029,-0.042,0.018,-0.029,109.0,107.0,105.0,13.3,1505.2,342.0,-0.8,1.8,2471.7,13.29,0.045,293.2
2023-12-12T05:37:03,42.805,6.029,-0.022,0.043,0.02,107.0,107.0,106.0,13.4,1505.2,354.8,-0.8,1.8,2471.687,13.29,0.048,332.9
2023-12-12T05:40:03,42.805,6.029,-0.008,0.032,-0.012,109.0,107.0,106.0,13.3,1505.2,1.7,-0.7,1.8,2471.679,13.29,0.032,346.0
2023-12-12T05:43:03,42.805,6.029,-0.018,0.006,-0.035,110.0,107.0,105.0,13.4,1505.2,341.0,-0.8,1.8,2471.709,13.29,0.018,288.4
2023-12-12T05:46:03,42.805,6.029,-0.024,0.034,-0.024,110.0,108.0,105.0,13.4,1505.2,351.3,-0.8,1.8,2471.718,13.29,0.041,324.8
2023-12-12T05:49:03,42.805,6.029,-0.002,0.029,-0.005,109.0,108.0,105.0,13.3,1505.2,348.6,-0.8,1.8,2471.708,13.29,0.029,356.1
2023-12-12T05:52:03,42.805,6.029,-0.028,0.043,-0.024,108.0,108.0,106.0,13.4,1505.2,343.6,-0.8,1.8,2471.702,13.29,0.051,326.9
2023-12-12T05:55:03,42.805,6.029,0.002,0.026,0.011,108.0,108.0,105.0,13.3,1505.2,352.8,-0.7,1.8,2471.686,13.29,0.026,4.4
2023-12-12T05:58:03,42.805,6.029,-0.02,0.015,-0.008,107.0,108.0,105.0,13.3,1505.2,358.3,-0.8,1.8,2471.719,13.29,0.025,306.9
2023-12-12T06:04:03,42.805,6.029,-0.016,0.032,-0.02,109.0,107.0,105.0,13.3,1505.2,351.4,-0.8,1.8,2471.806,13.29,0.035,333.4
2023-12-12T06:07:03,42.805,6.029,-0.017,0.03,-0.029,108.0,108.0,105.0,13.3,1505.2,346.5,-0.8,1.8,2471.737,13.29,0.034,330.5
2023-12-12T06:10:03,42.805,6.029,-0.024,0.036,-0.015,107.0,106.0,106.0,13.3,1505.2,353.7,-0.7,1.9,2471.72,13.29,0.043,326.3
2023-12-12T06:13:03,42.805,6.029,-0.021,0.037,-0.027,108.0,107.0,105.0,13.3,1505.2,352.8,-0.7,1.8,2471.753,13.29,0.042,330.4
2023-12-12T06:16:03,42.805,6.029,-0.021,0.018,-0.037,107.0,107.0,103.0,13.3,1505.2,0.8,-0.7,1.8,2471.735,13.29,0.027,310.6
2023-12-12T06:19:03,42.805,6.029,-0.035,0.046,-0.013,107.0,107.0,105.0,13.3,1505.2,0.8,-0.8,1.8,2471.723,13.29,0.057,322.7
2023-12-12T06:22:03,42.805,6.029,-0.036,0.036,-0.018,109.0,108.0,105.0,13.4,1505.2,353.9,-0.8,1.8,2471.762,13.29,0.05,315.0
2023-12-12T06:25:03,42.805,6.029,-0.039,0.037,0.018,107.0,108.0,104.0,13.4,1505.2,337.4,-0.8,1.8,2471.749,13.29,0.053,313.5
2023-12-12T06:28:03,42.805,6.029,-0.03,0.021,-0.028,109.0,109.0,106.0,13.4,1505.2,352.7,-0.8,1.8,2471.722,13.29,0.036,305.0
2023-12-12T06:31:03,42.805,6.029,-0.03,0.052,-0.016,108.0,108.0,105.0,13.4,1505.2,342.0,-0.7,1.8,2471.732,13.29,0.06,330.0
2023-12-12T06:34:03,42.805,6.029,-0.02,0.025,0.005,108.0,107.0,106.0,13.3,1505.2,3.4,-0.7,1.8,2471.74,13.29,0.032,321.3
2023-12-12T06:37:03,42.805,6.029,-0.002,0.032,0.0,108.0,107.0,105.0,13.4,1505.2,2.4,-0.8,1.8,2471.737,13.29,0.032,356.4
2023-12-12T06:40:03,42.805,6.029,-0.041,0.062,0.018,109.0,107.0,105.0,13.4,1505.2,354.7,-0.8,1.8,2471.719,13.29,0.074,326.5
2023-12-12T06:43:03,42.805,6.029,-0.047,0.041,-0.026,109.0,107.0,105.0,13.3,1505.2,352.8,-0.7,1.8,2471.757,13.29,0.062,311.1
2023-12-12T06:46:03,42.805,6.029,-0.021,0.039,-0.016,108.0,108.0,104.0,13.4,1505.2,356.0,-0.8,1.8,2471.743,13.29,0.044,331.7
2023-12-12T06:49:03,42.805,6.029,-0.019,0.04,-0.019,108.0,108.0,104.0,13.3,1505.2,351.2,-0.7,1.8,2471.758,13.29,0.044,334.6
2023-12-12T06:52:03,42.805,6.029,-0.022,0.033,-0.03,109.0,108.0,105.0,13.4,1505.2,355.6,-0.8,1.8,2471.728,13.29,0.039,326.3
2023-12-12T06:55:03,42.805,6.029,-0.008,0.032,-0.037,109.0,107.0,104.0,13.4,1505.2,350.2,-0.8,1.8,2471.722,13.29,0.032,346.0
2023-12-12T06:58:03,42.805,6.029,-0.01,0.047,-0.009,109.0,108.0,105.0,13.4,1505.2,339.0,-0.8,1.8,2471.666,13.29,0.048,348.0
2023-12-12T07:04:03,42.805,6.029,-0.001,0.056,-0.022,110.0,108.0,105.0,13.4,1505.2,0.8,-0.8,1.8,2471.766,13.29,0.056,359.0
2023-12-12T07:07:03,42.805,6.029,-0.006,0.045,0.026,109.0,108.0,106.0,13.3,1505.2,350.7,-0.8,1.8,2471.754,13.29,0.045,352.4
2023-12-12T07:10:03,42.805,6.029,-0.022,0.022,-0.01,108.0,109.0,106.0,13.3,1505.2,354.7,-0.8,1.8,2471.767,13.29,0.031,315.0
2023-12-12T07:13:03,42.805,6.029,-0.026,0.046,0.002,108.0,108.0,105.0,13.3,1505.2,344.3,-0.8,1.8,2471.765,13.29,0.052,330.5
2023-12-12T07:16:03,42.805,6.029,-0.004,0.039,-0.017,109.0,108.0,106.0,13.3,1505.2,2.5,-0.8,1.8,2471.733,13.29,0.039,354.1
2023-12-12T07:19:04,42.805,6.029,-0.007,0.029,-0.032,110.0,108.0,104.0,13.4,1505.2,340.8,-0.8,1.8,2471.761,13.29,0.029,346.4
2023-12-12T07:22:03,42.805,6.029,-0.034,0.021,-0.006,108.0,106.0,105.0,13.3,1505.2,340.5,-0.7,1.8,2471.737,13.29,0.039,301.7
2023-12-12T07:25:03,42.805,6.029,-0.02,0.046,-0.007,109.0,107.0,106.0,13.4,1505.2,347.6,-0.7,1.8,2471.713,13.29,0.05,336.5
2023-12-12T07:28:03,42.805,6.029,-0.016,0.015,-0.007,107.0,109.0,104.0,13.4,1505.2,345.7,-0.8,1.8,2471.754,13.29,0.021,313.1
2023-12-12T07:31:03,42.805,6.029,-0.018,0.01,-0.04,108.0,108.0,105.0,13.3,1505.2,339.8,-0.8,1.8,2471.734,13.29,0.02,299.1
2023-12-12T07:34:03,42.805,6.029,-0.029,0.036,-0.028,108.0,107.0,104.0,13.4,1505.2,354.7,-0.7,1.8,2471.784,13.29,0.046,321.1
2023-12-12T07:37:03,42.805,6.029,-0.021,0.04,-0.007,109.0,108.0,105.0,13.3,1505.2,345.0,-0.7,1.8,2471.693,13.29,0.045,332.3
2023-12-12T07:40:03,42.805,6.029,-0.032,0.04,-0.001,108.0,108.0,104.0,13.3,1505.2,345.7,-0.8,1.8,2471.749,13.29,0.051,321.3
2023-12-12T07:43:03,42.805,6.029,-0.032,0.049,-0.002,108.0,108.0,105.0,13.4,1505.2,352.3,-0.8,1.8,2471.728,13.29,0.058,326.8
2023-12-12T07:46:03,42.805,6.029,-0.041,0.04,-0.021,109.0,107.0,105.0,13.4,1505.2,341.8,-0.8,1.8,2471.751,13.29,0.057,314.3
2023-12-12T07:49:03,42.805,6.029,-0.029,0.027,-0.005,110.0,108.0,105.0,13.4,1505.2,343.6,-0.8,1.8,2471.719,13.29,0.039,313.0
2023-12-12T07:52:03,42.805,6.029,-0.01,0.05,-0.016,108.0,107.0,106.0,13.3,1505.2,352.1,-0.8,1.8,2471.735,13.29,0.05,348.7
2023-12-12T07:55:03,42.805,6.029,-0.02,0.04,-0.006,107.0,108.0,105.0,13.4,1505.2,347.2,-0.7,1.8,2471.723,13.29,0.044,333.4
2023-12-12T07:58:03,42.805,6.029,0.001,0.054,-0.023,110.0,108.0,105.0,13.4,1505.2,3.2,-0.8,1.8,2471.743,13.29,0.054,1.1
2023-12-12T08:04:03,42.805,6.029,-0.032,0.041,-0.035,108.0,109.0,105.0,13.4,1505.2,0.8,-0.8,1.8,2471.729,13.29,0.052,322.0
2023-12-12T08:07:03,42.805,6.029,-0.021,0.031,-0.016,109.0,108.0,105.0,13.4,1505.2,341.5,-0.8,1.8,2471.747,13.29,0.037,325.9
2023-12-12T08:10:03,42.805,6.029,-0.019,0.032,0.014,108.0,108.0,105.0,13.4,1505.2,356.7,-0.8,1.8,2471.772,13.29,0.037,329.3
2023-12-12T08:13:03,42.805,6.029,-0.028,0.038,-0.032,109.0,108.0,105.0,13.3,1505.2,355.6,-0.8,1.8,2471.697,13.29,0.047,323.6
2023-12-12T08:16:03,42.805,6.029,-0.022,0.023,-0.013,108.0,108.0,105.0,13.4,1505.2,343.8,-0.8,1.8,2471.69,13.29,0.031,316.3
2023-12-12T08:19:03,42.805,6.029,-0.032,0.019,-0.003,109.0,109.0,105.0,13.3,1505.2,343.8,-0.8,1.8,2471.719,13.29,0.037,300.7
2023-12-12T08:22:03,42.805,6.029,-0.016,0.024,-0.018,109.0,108.0,105.0,13.3,1505.2,0.0,-0.8,1.8,2471.729,13.29,0.028,326.3
2023-12-12T08:25:03,42.805,6.029,-0.023,0.047,-0.012,108.0,108.0,105.0,13.3,1505.2,351.2,-0.8,1.8,2471.707,13.29,0.052,333.9
2023-12-12T08:28:03,42.805,6.029,-0.012,0.055,0.001,109.0,108.0,105.0,13.3,1505.2,0.0,-0.8,1.9,2471.689,13.29,0.056,347.7
2023-12-12T08:31:03,42.805,6.029,-0.018,0.028,-0.031,109.0,108.0,106.0,13.3,1505.2,342.5,-0.8,1.8,2471.69,13.29,0.033,327.3
2023-12-12T08:34:03,42.805,6.029,-0.011,0.027,-0.019,109.0,107.0,105.0,13.4,1505.2,355.7,-0.7,1.8,2471.703,13.29,0.029,337.8
2023-12-12T08:37:03,42.805,6.029,-0.045,0.035,-0.001,108.0,108.0,104.0,13.4,1505.2,339.8,-0.8,1.8,2471.692,13.29,0.057,307.9
2023-12-12T08:40:03,42.805,6.029,-0.047,0.036,-0.012,109.0,108.0,105.0,13.3,1505.2,352.8,-0.8,1.8,2471.705,13.29,0.059,307.5
2023-12-12T08:43:03,42.805,6.029,-0.009,0.045,-0.015,109.0,108.0,105.0,13.4,1505.2,0.8,-0.7,1.8,2471.679,13.29,0.045,348.7
2023-12-12T08:46:03,42.805,6.029,-0.01,0.047,0.016,109.0,108.0,105.0,13.4,1505.2,345.7,-0.8,1.8,2471.709,13.29,0.048,348.0
2023-12-12T08:49:03,42.805,6.029,-0.033,0.034,0.005,108.0,107.0,105.0,13.4,1505.2,357.4,-0.8,1.8,2471.726,13.29,0.047,315.9
2023-12-12T08:52:03,42.805,6.029,-0.011,0.057,0.011,109.0,107.0,106.0,13.4,1505.2,338.0,-0.8,1.8,2471.72,13.29,0.058,349.1
2023-12-12T08:55:03,42.805,6.029,-0.013,0.034,-0.028,108.0,108.0,107.0,13.4,1505.2,357.5,-0.8,1.8,2471.71,13.29,0.036,339.1
2023-12-12T08:58:03,42.805,6.029,-0.021,0.025,-0.003,109.0,108.0,106.0,13.4,1505.2,357.2,-0.8,1.8,2471.695,13.29,0.032,320.0
2023-12-12T09:04:03,42.805,6.029,-0.049,0.033,-0.037,108.0,108.0,113.0,13.3,1505.2,347.6,-0.8,1.8,2471.679,13.29,0.059,304.0
2023-12-12T09:07:03,42.805,6.029,-0.02,0.044,-0.014,108.0,107.0,106.0,13.4,1505.2,0.0,-0.8,1.8,2471.693,13.29,0.048,335.6
2023-12-12T09:10:03,42.805,6.029,-0.044,0.05,-0.008,108.0,108.0,105.0,13.4,1505.2,349.0,-0.8,1.8,2471.693,13.29,0.066,318.7
2023-12-12T09:13:03,42.805,6.029,-0.017,0.037,-0.025,109.0,108.0,105.0,13.4,1505.2,354.5,-0.8,1.8,2471.691,13.29,0.04,335.3
2023-12-12T09:16:03,42.805,6.029,-0.02,0.04,-0.029,108.0,108.0,105.0,13.4,1505.2,354.6,-0.8,1.8,2471.71,13.29,0.044,333.4
2023-12-12T09:19:03,42.805,6.029,-0.02,0.031,0.012,109.0,108.0,105.0,13.3,1505.2,351.3,-0.8,1.8,2471.684,13.29,0.036,327.2
2023-12-12T09:22:03,42.805,6.029,-0.016,0.035,-0.013,108.0,108.0,105.0,13.4,1505.2,0.8,-0.8,1.8,2471.693,13.29,0.038,335.4
2023-12-12T09:25:03,42.805,6.029,-0.032,0.017,-0.016,109.0,109.0,106.0,13.4,1505.2,338.6,-0.8,1.8,2471.668,13.29,0.036,298.0
2023-12-12T09:28:03,42.805,6.029,-0.002,0.049,0.004,108.0,108.0,106.0,13.3,1505.2,352.6,-0.8,1.8,2471.674,13.29,0.049,357.7
2023-12-12T09:31:03,42.805,6.029,-0.013,0.025,-0.046,111.0,108.0,106.0,13.4,1505.2,1.7,-0.7,1.8,2471.687,13.29,0.028,332.5
2023-12-12T09:34:03,42.805,6.029,-0.044,0.012,0.012,107.0,109.0,105.0,13.4,1505.2,338.9,-0.7,1.8,2471.666,13.29,0.045,285.3
2023-12-12T09:37:03,42.805,6.029,-0.009,0.032,-0.02,108.0,108.0,105.0,13.3,1505.2,355.9,-0.8,1.8,2471.635,13.29,0.033,344.3
2023-12-12T09:40:03,42.805,6.029,-0.018,0.029,-0.015,109.0,109.0,105.0,13.3,1505.2,354.4,-0.7,1.8,2471.664,13.29,0.034,328.2
2023-12-12T09:43:03,42.805,6.029,-0.015,0.021,-0.033,108.0,108.0,105.0,13.4,1505.2,347.1,-0.8,1.8,2471.654,13.29,0.025,324.5
2023-12-12T09:46:03,42.805,6.029,-0.002,0.035,0.017,109.0,108.0,106.0,13.4,1505.2,0.8,-0.8,1.8,2471.648,13.29,0.035,356.7
2023-12-12T09:49:03,42.805,6.029,-0.023,0.036,-0.018,109.0,109.0,105.0,13.4,1505.2,348.1,-0.7,1.8,2471.684,13.29,0.042,327.4
2023-12-12T09:52:03,42.805,6.029,-0.029,0.035,-0.034,110.0,108.0,105.0,13.3,1505.2,353.0,-0.8,1.8,2471.689,13.29,0.045,320.4
2023-12-12T09:55:03,42.805,6.029,0.005,0.015,-0.007,109.0,109.0,104.0,13.3,1505.2,0.0,-0.8,1.8,2471.665,13.29,0.015,18.4
2023-12-12T09:58:03,42.805,6.029,-0.004,0.038,-0.002,108.0,108.0,106.0,13.4,1505.2,354.8,-0.8,1.8,2471.684,13.29,0.038,354.0